User: anonymous   Login
Location: Nirvana
(45.0297°N, 77.2628°W)
Time: 21:46:51
(UTC-04:00)
Language:

H-2A R/B - Orbit

View from above orbital plane
View from above orbital plane
View from above satellite
View from above satellite

Ground track
Ground track

The orbit data is extracted from the following two-line orbital elements,

1 27601U 02056E   15085.85425931  .00000305  00000-0  12694-3 0  9998
2 27601 098.4573 166.6970 0072482 182.8317 288.8628 14.31559093641432
Epoch (UTC): 26 March 2015 20:30:08
Eccentricity: 0.0072482
inclination: 98.4573°
perigee height: 734 km
apogee height: 838 km
right ascension of ascending node: 166.6970°
argument of perigee: 182.8317°
revolutions per day: 14.31559093
mean anomaly at epoch: 288.8628°
orbit number at epoch: 64143

The dashed part of the orbit path shows where the satellite is in the earth's shadow,  

DLR